Weather History for Mattoon, IL

Change the Weather History Date:

Sunday, January 12, 2014

  Actual Average Record
Temperature  
Mean Temperature 36 °F 27 °F  
Max Temperature 45 °F 35 °F 68 °F (1960)
Min Temperature 26 °F 19 °F -9 °F (1974)
Degree Days  
Heating Degree Days 29 38  
Month to date heating degree days 540 453  
Since 1 July heating degree days 2781 2556  
Cooling Degree Days 0 0  
Month to date cooling degree days 0 0  
Year to date cooling degree days 0 0  
Moisture  
Dew Point 30 °F    
Average Humidity 81    
Maximum Humidity 100    
Minimum Humidity 62    
Precipitation  
Precipitation 0.00 in 0.08 in 1.27 in (2013)
Month to date precipitation 0.27 1.02  
Year to date precipitation 0.27 1.02  
Sea Level Pressure  
Sea Level Pressure 29.87 in    
Wind  
Wind Speed 14 mph (SSW)    
Max Wind Speed 24 mph    
Max Gust Speed 33 mph    
Visibility 10 miles    
Events      
T = Trace of Precipitation, MM = Missing Value Source: NWS Daily Summary

Daily Weather History Graph

Daily Weather History Graph

Search for Another Location

Airport:

Trip Planner

Search our weather history database for the weather conditions in past years. The results will help you decide how hot, cold, wet, or windy it might be!

Date:

Astronomy

Jan. 12, 2014 Rise Set
Actual Time 7:12 AM CST 4:50 PM CST
Civil Twilight 6:42 AM CST 5:20 PM CST
Nautical Twilight 6:09 AM CST 5:53 PM CST
Astronomical Twilight 5:37 AM CST 6:25 PM CST
Moon 2:18 PM CST (1/12) 4:11 AM CST (1/12)
Length of Visible Light 10h 37m
Length of Day
9h 37m
Waxing Gibbous, 90% of the Moon is Illuminated
Jan 12
Waxing Gibbous
Jan 15
Full
Jan 23
Last Quarter
Jan 30
New
Feb 6
First Quarter

Hourly Weather History & Observations

Time (CST) Temp. Windchill Dew Point Humidity Pressure Visibility Wind Dir Wind Speed Gust Speed Precip Events Conditions
12:53 AM 32.0 °F 22.5 °F 28.9 °F 88% 29.89 in 10.0 mi NW 12.7 mph - N/A   Overcast
1:06 AM 32.0 °F 21.2 °F 28.9 °F 88% 29.88 in 10.0 mi WNW 16.1 mph - N/A   Overcast
1:53 AM 30.9 °F 21.2 °F 28.0 °F 89% 29.92 in 10.0 mi NW 12.7 mph - N/A   Overcast
2:53 AM 30.0 °F 22.4 °F 28.0 °F 92% 29.95 in 10.0 mi WNW 8.1 mph - N/A   Overcast
3:24 AM 30.0 °F 22.4 °F 28.0 °F 92% 29.92 in 10.0 mi WNW 8.1 mph - N/A   Overcast
3:53 AM 30.0 °F 22.4 °F 28.0 °F 92% 29.93 in 10.0 mi WNW 8.1 mph - N/A   Overcast
4:53 AM 30.0 °F 26.5 °F 28.0 °F 92% 29.94 in 10.0 mi WNW 3.5 mph - N/A   Overcast
5:53 AM 28.9 °F - 27.0 °F 92% 29.97 in 10.0 mi Calm Calm - N/A   Mostly Cloudy
6:08 AM 28.9 °F - 27.0 °F 92% 29.95 in 10.0 mi Calm Calm - N/A   Scattered Clouds
6:53 AM 27.0 °F 21.6 °F 26.1 °F 96% 29.98 in 8.0 mi South 4.6 mph - N/A   Clear
7:53 AM 28.0 °F 18.6 °F 27.0 °F 96% 29.99 in 7.0 mi South 10.4 mph - N/A   Clear
8:53 AM 30.9 °F 21.7 °F 28.0 °F 89% 29.99 in 10.0 mi South 11.5 mph - N/A   Clear
9:53 AM 33.1 °F 23.4 °F 30.0 °F 89% 29.98 in 10.0 mi South 13.8 mph - N/A   Clear
10:53 AM 36.0 °F 26.3 °F 30.9 °F 82% 29.95 in 10.0 mi South 16.1 mph 23.0 mph N/A   Clear
11:53 AM 37.9 °F 28.2 °F 32.0 °F 79% 29.91 in 10.0 mi South 18.4 mph 27.6 mph N/A   Clear
12:53 PM 41.0 °F 32.2 °F 33.1 °F 73% 29.87 in 10.0 mi South 18.4 mph 26.5 mph N/A   Clear
1:53 PM 42.1 °F 33.9 °F 33.1 °F 70% 29.83 in 10.0 mi South 17.3 mph 27.6 mph N/A   Clear
2:53 PM 44.1 °F 36.2 °F 34.0 °F 68% 29.81 in 10.0 mi South 18.4 mph 26.5 mph N/A   Clear
3:53 PM 44.1 °F 36.2 °F 34.0 °F 68% 29.80 in 10.0 mi South 18.4 mph 26.5 mph N/A   Clear
4:53 PM 43.0 °F 34.5 °F 34.0 °F 71% 29.78 in 10.0 mi SSE 19.6 mph 27.6 mph N/A   Clear
5:53 PM 43.0 °F 34.2 °F 34.0 °F 71% 29.77 in 10.0 mi SSE 20.7 mph 29.9 mph N/A   Clear
6:53 PM 43.0 °F 35.1 °F 33.1 °F 68% 29.77 in 10.0 mi South 17.3 mph 26.5 mph N/A   Clear
7:53 PM 45.0 °F 37.4 °F 32.0 °F 60% 29.78 in 10.0 mi South 18.4 mph 25.3 mph N/A   Clear
8:53 PM 44.1 °F 37.1 °F 32.0 °F 63% 29.79 in 10.0 mi South 15.0 mph - N/A   Clear
9:53 PM 43.0 °F 35.7 °F 32.0 °F 65% 29.78 in 10.0 mi South 15.0 mph - N/A   Clear
10:53 PM 43.0 °F 35.7 °F 32.0 °F 65% 29.75 in 10.0 mi South 15.0 mph 23.0 mph N/A   Clear
11:53 PM 43.0 °F 36.4 °F 32.0 °F 65% 29.73 in 10.0 mi South 12.7 mph - N/A   Clear